Tracking 19909 objects as of 21-Oct-2019
HD Live streaming from Space Station
objects crossing your sky now

LES 5

Track LES 5 now!
LES 5 is classified as:


NORAD ID: 2866
Int'l Code: 1967-066E
Perigee: 33,180.2 km
Apogee: 33,636.5 km
Inclination: 3.4 °
Period: 1,316.0 minutes
Semi major axis: 39779 km
RCS: 2.6184 m2 (large)
Launch date: July 1, 1967
Source: United States (US)
Launch site: AIR FORCE EASTERN TEST RANGE (AFETR)
aabbcc
Your satellite tracking list
Your tracking list is empty




NASA's NSSDC Master Catalog

Two Line Element Set (TLE):
1  2866U 67066E   19293.82046706 -.00000054 +00000-0 +00000-0 0  9994
2  2866 003.3743 279.2685 0057353 344.7606 214.8510 01.09424891104426
Source of the keplerian elements: AFSPC